When you browse on this site, cookies collect data to enhance your experience and personalize the content and advertising you see.
Visit our Privacy Policy to learn more. By continuing to use the site, you agree to this use of cookies and data.
  • In Latvia
  • List of Countries
  • For 7 days
  • Water Temperature
  • Weather Map
  • Weather Widgets
  • user-avatar
    Login

    Hourly Weather Canberra

    Today, 15 November, Friday

    Time Temperature Precipitation Wind Pressure Humidity
    00:00 +9°C° 0 mm 2 mps 705 mmHg 83%
    01:00 +9°C° 0 mm 2 mps 705 mmHg 86%
    02:00 +8°C° 0 mm 2 mps 705 mmHg 86%
    03:00 +8°C° 0 mm 2 mps 704 mmHg 86%
    04:00 +8°C° 0 mm 2 mps 704 mmHg 87%
    05:00 +10°C° 0 mm 2 mps 704 mmHg 78%
    06:00 +12°C° 0 mm 3 mps 705 mmHg 70%
    07:00 +13°C° 0 mm 4 mps 705 mmHg 61%
    08:00 +16°C° 0 mm 5 mps 705 mmHg 53%
    09:00 +19°C° 0 mm 6 mps 705 mmHg 44%
    10:00 +21°C° 0 mm 8 mps 705 mmHg 36%
    11:00 +22°C° 0 mm 8 mps 705 mmHg 34%
    12:00 +23°C° 0 mm 8 mps 705 mmHg 32%
    13:00 +23°C° 0 mm 8 mps 704 mmHg 30%
    14:00 +23°C° 0 mm 7 mps 704 mmHg 30%
    15:00 +23°C° 0 mm 7 mps 704 mmHg 30%
    16:00 +22°C° 0 mm 7 mps 704 mmHg 30%
    17:00 +20°C° 0 mm 6 mps 704 mmHg 38%
    18:00 +17°C° 0 mm 4 mps 705 mmHg 46%
    19:00 +14°C° 0 mm 3 mps 705 mmHg 53%
    20:00 +14°C° 0 mm 2 mps 706 mmHg 59%
    21:00 +12°C° 0 mm 2 mps 706 mmHg 64%
    22:00 +11°C° 0 mm 1 mps 707 mmHg 69%
    23:00 +10°C° 0 mm 1 mps 707 mmHg 74%

    Tomorrow, 16 November, Saturday

    Time Temperature Precipitation Wind Pressure Humidity
    00:00 +9°C° 0 mm 1 mps 707 mmHg 78%
    01:00 +9°C° 0 mm 1 mps 706 mmHg 83%
    02:00 +7°C° 0 mm 0 mps 707 mmHg 85%
    03:00 +6°C° 0 mm 0 mps 707 mmHg 88%
    04:00 +5°C° 0 mm 0 mps 707 mmHg 91%
    05:00 +7°C° 0 mm 0 mps 707 mmHg 81%
    06:00 +10°C° 0 mm 0 mps 708 mmHg 72%
    07:00 +13°C° 0 mm 1 mps 709 mmHg 63%
    08:00 +15°C° 0 mm 1 mps 709 mmHg 51%
    09:00 +18°C° 0 mm 2 mps 709 mmHg 39%
    10:00 +20°C° 0 mm 3 mps 709 mmHg 27%
    11:00 +21°C° 0 mm 4 mps 709 mmHg 23%
    12:00 +23°C° 0 mm 4 mps 709 mmHg 20%
    13:00 +25°C° 0 mm 5 mps 708 mmHg 16%
    14:00 +23°C° 0 mm 5 mps 708 mmHg 17%
    15:00 +23°C° 0 mm 5 mps 708 mmHg 17%
    16:00 +23°C° 0 mm 6 mps 708 mmHg 17%
    17:00 +20°C° 0 mm 4 mps 708 mmHg 25%
    18:00 +17°C° 0 mm 3 mps 708 mmHg 33%
    19:00 +14°C° 0 mm 2 mps 709 mmHg 41%
    20:00 +13°C° 0 mm 2 mps 709 mmHg 52%
    21:00 +12°C° 0 mm 1 mps 709 mmHg 62%
    22:00 +11°C° 0 mm 1 mps 709 mmHg 72%
    23:00 +10°C° 0 mm 1 mps 708 mmHg 77%

    Day after tomorrow, 17 November, Sunday

    Time Temperature Precipitation Wind Pressure Humidity
    00:00 +9°C° 0 mm 1 mps 708 mmHg 83%
    01:00 +8°C° 0 mm 1 mps 708 mmHg 89%
    02:00 +8°C° 0 mm 1 mps 708 mmHg 89%
    03:00 +7°C° 0 mm 0 mps 708 mmHg 89%
    04:00 +7°C° 0 mm 0 mps 707 mmHg 89%
    05:00 +9°C° 0 mm 0 mps 708 mmHg 84%
    06:00 +10°C° 0 mm 0 mps 708 mmHg 78%
    07:00 +12°C° 0 mm 0 mps 709 mmHg 73%
    08:00 +15°C° 0 mm 1 mps 709 mmHg 58%
    09:00 +18°C° 0 mm 2 mps 709 mmHg 43%
    10:00 +20°C° 0 mm 2 mps 709 mmHg 29%
    11:00 +21°C° 0 mm 3 mps 709 mmHg 26%
    12:00 +22°C° 0 mm 3 mps 709 mmHg 22%
    13:00 +23°C° 0 mm 4 mps 709 mmHg 19%
    14:00 +23°C° 0 mm 4 mps 709 mmHg 22%
    15:00 +23°C° 0 mm 4 mps 709 mmHg 24%
    16:00 +22°C° 0 mm 4 mps 708 mmHg 27%
    17:00 +19°C° 0 mm 4 mps 709 mmHg 43%
    18:00 +15°C° 0 mm 4 mps 709 mmHg 60%
    19:00 +11°C° 0 mm 4 mps 710 mmHg 76%
    20:00 +10°C° 0 mm 3 mps 710 mmHg 81%
    21:00 +10°C° 0 mm 2 mps 710 mmHg 85%
    22:00 +9°C° 0 mm 2 mps 711 mmHg 90%
    23:00 +10°C° 0 mm 1 mps 710 mmHg 90%

    18 November, Monday

    Time Temperature Precipitation Wind Pressure Humidity
    00:00 +9°C° 0 mm 1 mps 710 mmHg 90%
    01:00 +9°C° 0 mm 1 mps 710 mmHg 91%
    02:00 +9°C° 0 mm 1 mps 710 mmHg 91%
    03:00 +8°C° 0 mm 0 mps 710 mmHg 91%
    04:00 +8°C° 0 mm 0 mps 709 mmHg 90%
    05:00 +11°C° 0 mm 1 mps 710 mmHg 85%
    06:00 +12°C° 0 mm 1 mps 710 mmHg 79%
    07:00 +13°C° 0 mm 2 mps 710 mmHg 73%
    08:00 +16°C° 0 mm 2 mps 710 mmHg 60%
    09:00 +18°C° 0 mm 3 mps 710 mmHg 46%
    10:00 +21°C° 0 mm 4 mps 710 mmHg 32%
    11:00 +23°C° 0 mm 4 mps 709 mmHg 29%
    12:00 +25°C° 0 mm 5 mps 709 mmHg 26%
    13:00 +27°C° 0 mm 5 mps 708 mmHg 23%
    14:00 +26°C° 0 mm 5 mps 708 mmHg 25%
    15:00 +26°C° 0 mm 5 mps 707 mmHg 27%
    16:00 +26°C° 0 mm 5 mps 707 mmHg 28%
    17:00 +23°C° 0 mm 5 mps 707 mmHg 35%
    18:00 +20°C° 0 mm 4 mps 707 mmHg 42%
    19:00 +17°C° 0 mm 3 mps 707 mmHg 49%
    20:00 +16°C° 0 mm 2 mps 707 mmHg 54%
    21:00 +14°C° 0 mm 2 mps 707 mmHg 59%
    22:00 +13°C° 0 mm 1 mps 707 mmHg 64%
    23:00 +12°C° 0 mm 1 mps 707 mmHg 66%

    19 November, Tuesday

    Time Temperature Precipitation Wind Pressure Humidity
    00:00 +11°C° 0 mm 1 mps 706 mmHg 68%
    01:00 +11°C° 0 mm 1 mps 706 mmHg 70%
    02:00 +10°C° 0 mm 1 mps 705 mmHg 71%
    03:00 +10°C° 0 mm 1 mps 705 mmHg 73%
    04:00 +9°C° 0 mm 1 mps 705 mmHg 74%
    05:00 +12°C° 0 mm 1 mps 705 mmHg 65%
    06:00 +15°C° 0 mm 1 mps 706 mmHg 56%
    07:00 +17°C° 0 mm 2 mps 706 mmHg 46%
    08:00 +20°C° 0 mm 3 mps 707 mmHg 39%
    09:00 +23°C° 0 mm 5 mps 707 mmHg 31%
    10:00 +27°C° 0 mm 6 mps 707 mmHg 24%
    11:00 +28°C° 0 mm 6 mps 707 mmHg 22%
    12:00 +29°C° 0 mm 6 mps 706 mmHg 20%
    13:00 +30°C° 0 mm 6 mps 706 mmHg 17%
    14:00 +30°C° 0 mm 6 mps 706 mmHg 18%
    15:00 +30°C° 0 mm 6 mps 706 mmHg 19%
    16:00 +30°C° 0 mm 5 mps 706 mmHg 19%
    17:00 +27°C° 0 mm 4 mps 706 mmHg 27%
    18:00 +24°C° 0 mm 3 mps 707 mmHg 35%
    19:00 +19°C° 0 mm 2 mps 707 mmHg 43%
    20:00 +17°C° 0 mm 2 mps 708 mmHg 58%
    21:00 +15°C° 0 mm 2 mps 708 mmHg 74%
    22:00 +11°C° 0 mm 3 mps 708 mmHg 90%
    23:00 +12°C° 0 mm 2 mps 708 mmHg 91%

    20 November, Wednesday

    Time Temperature Precipitation Wind Pressure Humidity
    00:00 +10°C° 0 mm 2 mps 708 mmHg 91%
    01:00 +11°C° 0 mm 1 mps 708 mmHg 92%
    02:00 +11°C° 0 mm 1 mps 708 mmHg 91%
    03:00 +12°C° 0 mm 1 mps 708 mmHg 90%
    04:00 +12°C° 0 mm 1 mps 708 mmHg 89%
    05:00 +13°C° 0 mm 1 mps 709 mmHg 84%
    06:00 +14°C° 0 mm 1 mps 709 mmHg 80%
    07:00 +15°C° 0 mm 1 mps 710 mmHg 75%
    08:00 +19°C° 0 mm 1 mps 710 mmHg 63%
    09:00 +22°C° 0 mm 1 mps 710 mmHg 51%
    10:00 +25°C° 0 mm 1 mps 710 mmHg 38%
    11:00 +27°C° 0 mm 1 mps 710 mmHg 33%
    12:00 +30°C° 0 mm 1 mps 710 mmHg 27%
    13:00 +32°C° 0 mm 1 mps 710 mmHg 21%
    14:00 +32°C° 0 mm 1 mps 710 mmHg 20%
    15:00 +34°C° 0 mm 2 mps 710 mmHg 19%
    16:00 +34°C° 0 mm 2 mps 710 mmHg 18%
    17:00 +29°C° 0 mm 3 mps 710 mmHg 33%
    18:00 +25°C° 0 mm 3 mps 710 mmHg 47%
    19:00 +20°C° 0 mm 4 mps 710 mmHg 62%
    20:00 +18°C° 0 mm 3 mps 710 mmHg 71%
    21:00 +16°C° 0 mm 2 mps 710 mmHg 81%
    22:00 +14°C° 0 mm 2 mps 710 mmHg 91%
    23:00 +13°C° 0 mm 1 mps 710 mmHg 92%
    Show more